| time (UTC) | temp F | wind direction | speed MPH | gust MPH | rain 1hr in | rain 24hr in | rain mn in | humidity % | barometer mb |
| 20260906124600 | 72 | 0 | 0.0 | 0.0 | 0.00 | 0.00 | 0.00 | 75 | 1015.0 |
| 20260906123137 | 71 | 0 | 0.0 | 0.0 | 0.00 | 0.00 | 0.00 | 76 | 1014.6 |
| 20260906121558 | 72 | 0 | 0.0 | 0.0 | 0.00 | 0.00 | 0.00 | 74 | 1014.7 |
| 20260906120109 | 72 | 0 | 0.0 | 0.0 | 0.00 | 0.00 | 0.00 | 75 | 1014.5 |
| 20260906114610 | 72 | 0 | 0.0 | 0.0 | 0.00 | 0.00 | 0.00 | 76 | 1014.1 |
| 20260906113058 | 72 | 0 | 0.0 | 2.0 | 0.00 | 0.00 | 0.00 | 76 | 1014.3 |
| 20260906111558 | 72 | 0 | 0.0 | 0.0 | 0.00 | 0.00 | 0.00 | 75 | 1014.3 |
| 20260906110054 | 72 | 0 | 0.0 | 3.0 | 0.00 | 0.00 | 0.00 | 75 | 1014.1 |
| 20260906104601 | 74 | 0 | 0.0 | 0.0 | 0.00 | 0.00 | 0.00 | 70 | 1014.0 |
| 20260906103059 | 75 | 0 | 0.0 | 2.0 | 0.00 | 0.00 | 0.00 | 69 | 1013.8 |
| 20260906101602 | 75 | 287 | 2.0 | 3.0 | 0.00 | 0.00 | 0.00 | 68 | 1013.7 |
| 20260906100055 | 75 | 0 | 1.0 | 4.0 | 0.00 | 0.00 | 0.00 | 67 | 1013.9 |
| 20260906094607 | 76 | 0 | 0.0 | 0.0 | 0.00 | 0.00 | 0.00 | 65 | 1013.8 |
| 20260906093105 | 76 | 0 | 0.0 | 0.0 | 0.00 | 0.00 | 0.00 | 63 | 1013.6 |
| 20260906091606 | 77 | 0 | 0.0 | 0.0 | 0.00 | 0.00 | 0.00 | 63 | 1013.8 |
| 20260906084606 | 77 | 0 | 0.0 | 0.0 | 0.00 | 0.00 | 0.00 | 61 | 1013.9 |
| 20260906083104 | 78 | 0 | 0.0 | 3.0 | 0.00 | 0.00 | 0.00 | 61 | 1013.9 |
| 20260906081602 | 78 | 225 | 1.0 | 3.0 | 0.00 | 0.00 | 0.00 | 61 | 1013.9 |
| 20260906074605 | 78 | 0 | 0.0 | 0.0 | 0.00 | 0.00 | 0.00 | 61 | 1014.1 |
| 20260906073103 | 78 | 227 | 2.0 | 4.0 | 0.00 | 0.00 | 0.00 | 62 | 1014.3 |
| 20260906071600 | 78 | 235 | 2.0 | 3.0 | 0.00 | 0.00 | 0.00 | 62 | 1014.3 |
| 20260906064601 | 79 | 221 | 1.0 | 4.0 | 0.00 | 0.00 | 0.00 | 61 | 1014.5 |
| 20260906063102 | 79 | 219 | 2.0 | 5.0 | 0.00 | 0.00 | 0.00 | 59 | 1014.6 |
| 20260906061600 | 79 | 0 | 0.0 | 4.0 | 0.00 | 0.00 | 0.00 | 61 | 1014.8 |
| 20260906060100 | 80 | 199 | 1.0 | 6.0 | 0.00 | 0.00 | 0.00 | 61 | 1014.8 |
| 20260906054559 | 81 | 159 | 3.0 | 6.0 | 0.00 | 0.00 | 0.00 | 58 | 1014.8 |
| 20260906053109 | 81 | 217 | 2.0 | 5.0 | 0.00 | 0.00 | 0.00 | 56 | 1014.9 |
| 20260906051604 | 82 | 217 | 3.0 | 4.0 | 0.00 | 0.00 | 0.00 | 53 | 1014.6 |
| 20260906050101 | 82 | 232 | 3.0 | 5.0 | 0.00 | 0.00 | 0.00 | 55 | 1014.6 |
| 20260906044600 | 81 | 240 | 2.0 | 5.0 | 0.00 | 0.00 | 0.00 | 58 | 1014.6 |
| 20260906043103 | 80 | 0 | 0.0 | 0.0 | 0.00 | 0.00 | 0.00 | 59 | 1014.5 |
| 20260906041602 | 80 | 0 | 0.0 | 0.0 | 0.00 | 0.00 | 0.00 | 59 | 1014.7 |
| 20260906040059 | 83 | 0 | 0.0 | 3.0 | 0.00 | 0.00 | 0.00 | 54 | 1014.5 |
| 20260906034607 | 83 | 0 | 0.0 | 3.0 | 0.00 | 0.00 | 0.00 | 54 | 1014.3 |
| 20260906033111 | 83 | 274 | 5.0 | 11.0 | 0.00 | 0.00 | 0.00 | 54 | 1014.0 |
| 20260906031555 | 83 | 248 | 7.0 | 12.0 | 0.00 | 0.00 | 0.00 | 50 | 1013.4 |
| 20260906030100 | 83 | 231 | 8.0 | 14.0 | 0.00 | 0.00 | 0.00 | 51 | 1013.0 |
| 20260906024600 | 84 | 244 | 9.0 | 14.0 | 0.00 | 0.00 | 0.00 | 52 | 1012.8 |
| 20260906023102 | 86 | 229 | 10.0 | 16.0 | 0.00 | 0.00 | 0.00 | 48 | 1012.8 |
| 20260906021606 | 87 | 228 | 9.0 | 13.0 | 0.00 | 0.00 | 0.00 | 44 | 1012.7 |
| 20260906020109 | 88 | 254 | 9.0 | 13.0 | 0.00 | 0.00 | 0.00 | 42 | 1012.4 |
| 20260906014603 | 89 | 265 | 10.0 | 17.0 | 0.00 | 0.00 | 0.00 | 40 | 1012.3 |
| 20260906013110 | 91 | 238 | 4.0 | 11.0 | 0.00 | 0.00 | 0.00 | 39 | 1012.4 |
| 20260906011608 | 92 | 143 | 7.0 | 12.0 | 0.00 | 0.00 | 0.00 | 36 | 1012.0 |
| 20260906010107 | 91 | 109 | 7.0 | 15.0 | 0.00 | 0.00 | 0.00 | 38 | 1011.7 |
| 20260906004611 | 92 | 112 | 8.0 | 12.0 | 0.00 | 0.00 | 0.00 | 37 | 1011.5 |
| 20260906003107 | 90 | 102 | 5.0 | 9.0 | 0.00 | 0.00 | 0.00 | 42 | 1011.3 |
| 20260906001607 | 91 | 85 | 7.0 | 9.0 | 0.00 | 0.00 | 0.00 | 40 | 1011.4 |
| 20260906000107 | 91 | 90 | 7.0 | 12.0 | 0.00 | 0.00 | 0.00 | 38 | 1011.4 |
| 20260905234558 | 92 | 101 | 7.0 | 15.0 | 0.00 | 0.00 | 0.00 | 37 | 1011.2 |
| 20260905233103 | 94 | 94 | 7.0 | 13.0 | 0.00 | 0.00 | 0.00 | 36 | 1011.3 |
| 20260905231602 | 95 | 82 | 4.0 | 13.0 | 0.00 | 0.00 | 0.00 | 36 | 1011.2 |
| 20260905224558 | 97 | 71 | 6.0 | 12.0 | 0.00 | 0.00 | 0.00 | 32 | 1011.2 |
| 20260905223103 | 97 | 66 | 0.0 | 15.0 | 0.00 | 0.00 | 0.00 | 31 | 1011.2 |
| 20260905221557 | 98 | 126 | 3.0 | 16.0 | 0.00 | 0.00 | 0.00 | 33 | 1011.2 |
| 20260905220103 | 98 | 0 | 0.0 | 12.0 | 0.00 | 0.00 | 0.00 | 34 | 1011.3 |
| 20260905214602 | 97 | 72 | 10.0 | 14.0 | 0.00 | 0.00 | 0.00 | 32 | 1011.4 |
| 20260905213059 | 97 | 91 | 5.0 | 10.0 | 0.00 | 0.00 | 0.00 | 31 | 1011.5 |
| 20260905211601 | 97 | 67 | 8.0 | 13.0 | 0.00 | 0.00 | 0.00 | 34 | 1011.7 |
| 20260905210120 | 96 | 87 | 8.0 | 19.0 | 0.00 | 0.00 | 0.00 | 37 | 1012.0 |
| 20260905204604 | 94 | 78 | 5.0 | 10.0 | 0.00 | 0.00 | 0.00 | 34 | 1012.3 |
| 20260905203101 | 100 | 128 | 3.0 | 14.0 | 0.00 | 0.00 | 0.00 | 31 | 1012.4 |
| 20260905201602 | 99 | 0 | 3.0 | 10.0 | 0.00 | 0.00 | 0.00 | 29 | 1012.6 |
| 20260905200114 | 100 | 133 | 0.0 | 4.0 | 0.00 | 0.00 | 0.00 | 29 | 1012.8 |
| 20260905194610 | 98 | 0 | 2.0 | 10.0 | 0.00 | 0.00 | 0.00 | 30 | 1013.1 |
| 20260905193102 | 100 | 148 | 0.0 | 7.0 | 0.00 | 0.00 | 0.00 | 31 | 1013.3 |
| 20260905191603 | 98 | 98 | 0.0 | 4.0 | 0.00 | 0.00 | 0.00 | 34 | 1013.6 |
| 20260905190112 | 97 | 0 | 4.0 | 10.0 | 0.00 | 0.00 | 0.00 | 32 | 1013.9 |
| 20260905184624 | 98 | 0 | 1.0 | 3.0 | 0.00 | 0.00 | 0.00 | 31 | 1014.3 |
| 20260905183107 | 97 | 0 | 0.0 | 4.0 | 0.00 | 0.00 | 0.00 | 35 | 1014.5 |
| 20260905181602 | 95 | 215 | 0.0 | 7.0 | 0.00 | 0.00 | 0.00 | 36 | 1014.5 |
| 20260905180104 | 95 | 0 | 0.0 | 6.0 | 0.00 | 0.00 | 0.00 | 38 | 1015.0 |
| 20260905174600 | 95 | 116 | 1.0 | 7.0 | 0.00 | 0.00 | 0.00 | 38 | 1015.2 |
| 20260905173113 | 93 | 0 | 2.0 | 5.0 | 0.00 | 0.00 | 0.00 | 38 | 1015.5 |
| 20260905171619 | 92 | 0 | 1.0 | 7.0 | 0.00 | 0.00 | 0.00 | 39 | 1015.5 |
| 20260905170109 | 92 | 59 | 2.0 | 5.0 | 0.00 | 0.00 | 0.00 | 40 | 1015.5 |
| 20260905164603 | 91 | 0 | 0.0 | 6.0 | 0.00 | 0.00 | 0.00 | 41 | 1015.6 |
| 20260905163113 | 90 | 0 | 0.0 | 4.0 | 0.00 | 0.00 | 0.00 | 42 | 1015.6 |
| 20260905161600 | 90 | 15 | 0.0 | 4.0 | 0.00 | 0.00 | 0.00 | 42 | 1015.6 |
| 20260905154615 | 88 | 0 | 0.0 | 3.0 | 0.00 | 0.00 | 0.00 | 45 | 1015.8 |
| 20260905153107 | 88 | 0 | 0.0 | 0.0 | 0.00 | 0.00 | 0.00 | 47 | 1015.9 |
| 20260905151614 | 86 | 0 | 0.0 | 3.0 | 0.00 | 0.00 | 0.00 | 49 | 1015.6 |
| 20260905144600 | 83 | 55 | 2.0 | 6.0 | 0.00 | 0.00 | 0.00 | 57 | 1015.8 |
| 20260905143101 | 82 | 55 | 3.0 | 6.0 | 0.00 | 0.00 | 0.00 | 58 | 1015.6 |
| 20260905141600 | 81 | 42 | 4.0 | 8.0 | 0.00 | 0.00 | 0.00 | 58 | 1015.7 |
| 20260905134600 | 79 | 0 | 0.0 | 0.0 | 0.00 | 0.00 | 0.00 | 60 | 1015.4 |
| 20260905133101 | 76 | 0 | 0.0 | 3.0 | 0.00 | 0.00 | 0.00 | 63 | 1015.2 |
| 20260905131604 | 74 | 0 | 0.0 | 0.0 | 0.00 | 0.00 | 0.00 | 66 | 1014.9 |
| 20260905130059 | 73 | 0 | 0.0 | 0.0 | 0.00 | 0.00 | 0.00 | 66 | 1014.7 |